Time,TemperatureF,DewpointF,PressureIn,WindDirection,WindDirectionDegrees,WindSpeedMPH,WindSpeedGustMPH,Humidity,HourlyPrecipIn,Conditions,Clouds,dailyrainin,SoftwareType,DateUTC
2013-09-01 00:00:00,76.7,68.9,29.65,East,90,0.0,0.0,77,0.00,,,0.00,Wunderground v.1.15,2013-09-01 05:00:00,
2013-09-01 00:10:00,76.7,68.9,29.65,East,90,0.0,0.0,77,0.00,,,0.00,Wunderground v.1.15,2013-09-01 05:10:00,
2013-09-01 00:20:00,76.5,68.7,29.64,East,90,0.0,0.0,77,0.00,,,0.00,Wunderground v.1.15,2013-09-01 05:20:00,
2013-09-01 00:30:00,76.3,68.9,29.64,East,90,0.0,0.0,78,0.00,,,0.00,Wunderground v.1.15,2013-09-01 05:30:00,
2013-09-01 00:35:00,76.1,68.7,29.64,East,90,0.0,0.0,78,0.00,,,0.00,Wunderground v.1.15,2013-09-01 05:35:00,
2013-09-01 00:45:00,76.0,68.6,29.63,East,90,0.0,0.0,78,0.00,,,0.00,Wunderground v.1.15,2013-09-01 05:45:00,
2013-09-01 00:50:00,76.0,69.0,29.63,East,90,0.0,0.0,79,0.00,,,0.00,Wunderground v.1.15,2013-09-01 05:50:00,
2013-09-01 01:00:00,75.8,68.8,29.63,East,90,0.0,0.0,79,0.00,,,0.00,Wunderground v.1.15,2013-09-01 06:00:00,
2013-09-01 01:10:00,75.6,68.6,29.63,East,90,0.0,0.0,79,0.00,,,0.00,Wunderground v.1.15,2013-09-01 06:10:00,
2013-09-01 01:20:00,75.6,68.6,29.63,East,90,0.0,0.0,79,0.00,,,0.00,Wunderground v.1.15,2013-09-01 06:20:00,
2013-09-01 01:25:00,75.6,68.6,29.63,East,90,0.0,0.0,79,0.00,,,0.00,Wunderground v.1.15,2013-09-01 06:25:00,
2013-09-01 01:35:00,75.4,68.8,29.62,East,90,0.0,0.0,80,0.00,,,0.00,Wunderground v.1.15,2013-09-01 06:35:00,
2013-09-01 01:45:00,74.7,68.1,29.62,East,90,0.0,0.0,80,0.00,,,0.00,Wunderground v.1.15,2013-09-01 06:45:00,
2013-09-01 01:55:00,74.7,68.1,29.62,East,90,0.0,0.0,80,0.00,,,0.00,Wunderground v.1.15,2013-09-01 06:55:00,
2013-09-01 02:00:00,74.7,68.1,29.62,East,90,0.0,0.0,80,0.00,,,0.00,Wunderground v.1.15,2013-09-01 07:00:00,
2013-09-01 02:10:00,74.9,68.7,29.62,SE,137,0.0,4.0,81,0.00,,,0.00,Wunderground v.1.15,2013-09-01 07:10:00,
2013-09-01 02:20:00,74.9,68.7,29.62,SE,143,2.0,2.0,81,0.00,,,0.00,Wunderground v.1.15,2013-09-01 07:20:00,
2013-09-01 02:30:00,74.4,68.2,29.62,SE,140,1.0,2.0,81,0.00,,,0.00,Wunderground v.1.15,2013-09-01 07:30:00,
2013-09-01 02:35:00,74.4,68.2,29.62,SE,140,1.0,2.0,81,0.00,,,0.00,Wunderground v.1.15,2013-09-01 07:35:00,
2013-09-01 02:45:00,74.4,68.5,29.62,SE,145,0.0,1.0,82,0.00,,,0.00,Wunderground v.1.15,2013-09-01 07:45:00,
2013-09-01 02:55:00,74.4,68.5,29.62,SE,145,0.0,0.0,82,0.00,,,0.00,Wunderground v.1.15,2013-09-01 07:55:00,
2013-09-01 03:05:00,74.2,68.3,29.62,SE,145,0.0,1.0,82,0.00,,,0.00,Wunderground v.1.15,2013-09-01 08:05:00,
2013-09-01 03:10:00,74.2,68.3,29.62,SE,145,1.0,2.0,82,0.00,,,0.00,Wunderground v.1.15,2013-09-01 08:10:00,
2013-09-01 03:20:00,74.2,68.3,29.61,SE,136,2.0,2.0,82,0.00,,,0.00,Wunderground v.1.15,2013-09-01 08:20:00,
2013-09-01 03:30:00,74.2,68.3,29.62,SSE,151,2.0,2.0,82,0.00,,,0.00,Wunderground v.1.15,2013-09-01 08:30:00,
2013-09-01 03:40:00,74.2,68.3,29.62,SSE,148,1.0,4.0,82,0.00,,,0.00,Wunderground v.1.15,2013-09-01 08:40:00,
2013-09-01 03:50:00,74.2,68.7,29.62,SE,138,2.0,2.0,83,0.00,,,0.00,Wunderground v.1.15,2013-09-01 08:50:00,
2013-09-01 04:00:00,74.0,68.5,29.61,SE,131,2.0,2.0,83,0.00,,,0.00,Wunderground v.1.15,2013-09-01 09:00:00,
2013-09-01 04:05:00,73.9,68.4,29.61,ESE,117,2.0,2.0,83,0.00,,,0.00,Wunderground v.1.15,2013-09-01 09:05:00,
2013-09-01 04:15:00,73.7,68.2,29.59,ESE,120,2.0,4.0,83,0.00,,,0.00,Wunderground v.1.15,2013-09-01 09:15:00,
2013-09-01 04:25:00,73.5,68.0,29.59,ESE,119,2.0,2.0,83,0.00,,,0.00,Wunderground v.1.15,2013-09-01 09:25:00,
2013-09-01 04:30:00,73.7,68.6,29.58,SE,134,2.0,2.0,84,0.00,,,0.00,Wunderground v.1.15,2013-09-01 09:30:00,
2013-09-01 04:40:00,73.9,68.8,29.58,SE,134,3.0,4.0,84,0.00,,,0.00,Wunderground v.1.15,2013-09-01 09:40:00,
2013-09-01 04:50:00,74.0,68.9,29.57,ESE,102,3.0,3.0,84,0.00,,,0.00,Wunderground v.1.15,2013-09-01 09:50:00,
2013-09-01 05:00:00,74.0,68.9,29.58,East,99,3.0,3.0,84,0.00,,,0.00,Wunderground v.1.15,2013-09-01 10:00:00,
2013-09-01 05:05:00,74.0,68.9,29.58,ESE,103,3.0,3.0,84,0.00,,,0.00,Wunderground v.1.15,2013-09-01 10:05:00,
2013-09-01 05:15:00,74.2,69.1,29.59,East,96,2.0,4.0,84,0.00,,,0.00,Wunderground v.1.15,2013-09-01 10:15:00,
2013-09-01 05:25:00,74.2,69.1,29.59,ESE,107,2.0,2.0,84,0.00,,,0.00,Wunderground v.1.15,2013-09-01 10:25:00,
2013-09-01 05:35:00,74.4,69.6,29.63,WNW,288,4.0,28.0,85,0.00,,,0.00,Wunderground v.1.15,2013-09-01 10:35:00,
2013-09-01 05:45:00,70.9,65.8,29.69,WNW,299,20.0,20.0,84,0.70,,,0.05,Wunderground v.1.15,2013-09-01 10:45:00,
2013-09-01 05:50:00,70.4,65.7,29.69,West,280,23.0,23.0,85,1.76,,,0.18,Wunderground v.1.15,2013-09-01 10:50:00,